| Anfragen |
Suchwort |
Ergebnisse |
Datum |
Quellen |
| 1 | berg 2021 - alpenvereinsjahrbuch | 15 | 2026-05-05 00:07:01 | 25 |
| 1 | emporiasmart.me7 | 8 | 2026-05-05 00:07:01 | 24 |
| 1 | 8720389001475 | 8 | 2026-05-05 00:07:01 | 24 |
| 1 | einhell ge-cm 36 43 li m solo | 44 | 2026-05-05 00:07:01 | 24 |
| 1 | stihl ap 300 s, | 33 | 2026-05-06 00:07:14 | 26 |
| 1 | hotty | 427 | 2026-05-05 00:07:01 | 23 |
| 1 | neolymp karabiner | 18 | 2026-05-05 00:07:01 | 25 |
| 1 | liqui moly rückspiegel-klebe-set | 46 | 2026-05-05 00:07:01 | 26 |
| 1 | hoka bondi 8 47 | 27 | 2026-05-05 00:07:01 | 24 |
| 1 | 195 70r14c 99 | 24 | 2026-05-05 00:07:01 | 24 |
| 1 | hazet abgasanlagen-werkzeug 4684 | 48 | 2026-05-05 00:07:01 | 25 |
| 1 | multidrain uv3 | 41 | 2026-05-05 00:07:01 | 25 |
| 1 | netzteil ladekabel fsp090-dvca1 | 28 | 2026-05-05 00:07:01 | 25 |
| 1 | febi bilstein 32850 | 67 | 2026-05-05 00:07:01 | 24 |
| 1 | jbl xtreme 4 musikbox | 16 | 2026-05-05 00:07:01 | 23 |
| 1 | sunnypillow stuhlkissen 6er set | 22 | 2026-05-05 00:07:01 | 25 |
| 1 | sunnypillow stuhlkissen set | 169 | 2026-05-05 00:07:01 | 25 |
| 1 | febi bilstein 32850 radlagersatz | 65 | 2026-05-05 00:07:01 | 24 |
| 1 | febi bilstein febi bilstein a2303300325 | 16 | 2026-05-05 00:07:01 | 24 |
| 1 | pkn631fp2e | 27 | 2026-05-05 00:07:01 | 23 |
| 1 | cpu schutz lga1700 | 18 | 2026-05-05 00:07:01 | 23 |
| 1 | matratzen perfekt tellerlattenrost mit motor,elektrisch teller lattenrost extra | 13 | 2026-05-05 00:07:01 | 21 |
| 1 | gq75qn900 | 38 | 2026-05-05 00:07:01 | 22 |
| 1 | netzteil einstellbar 144w | 138 | 2026-05-05 00:07:01 | 24 |
| 1 | lichtmaschinenregler triumph tiger 1050 | 10 | 2026-05-05 00:07:01 | 25 |
| 1 | 4011798481908 | 10 | 2026-05-05 00:07:01 | 23 |
| 1 | lenovo 01ax417 | 27 | 2026-05-05 00:07:01 | 23 |
| 1 | wera 05350451001 | 10 | 2026-05-05 00:07:01 | 22 |
| 1 | fepro spanndraht 3,8 | 17 | 2026-05-05 00:07:01 | 24 |
| 1 | 1682-211f febest radnabe | 16 | 2026-05-05 00:07:01 | 26 |
| 1 | cloud schulranzen-set bagger rocco 5-teilig | 33 | 2026-05-05 00:07:01 | 25 |
| 1 | worldpack bestway cabin pro daypack 54 cm | 30 | 2026-05-05 00:07:01 | 25 |
| 1 | elmex zahnpasta kariesschutz 75ml | 140 | 2026-05-05 00:07:01 | 25 |
| 1 | motorola edge 60 neo 12gb 256gb pantone grisaille | 18 | 2026-05-05 00:07:01 | 25 |
| 1 | kartusche 117849 | 11 | 2026-05-05 00:07:01 | 26 |
| 1 | eckregulierventil schell | 527 | 2026-05-05 00:07:01 | 25 |
| 1 | eckregulierventil 1 2 schell | 303 | 2026-05-05 00:07:01 | 25 |
| 1 | akku makita bl1430 3ah 14,4v | 21 | 2026-05-06 00:07:14 | 26 |
| 1 | 8720389001987 | 12 | 2026-05-05 00:07:01 | 23 |
| 1 | moskitonetze ford transit custom mayr | 8 | 2026-05-05 00:07:01 | 24 |
| 1 | repeater 2400 mit lan anschluss | 16 | 2026-05-05 00:07:01 | 24 |
| 1 | centurion country r900 lx | 40 | 2026-05-05 00:07:01 | 24 |
| 1 | renogy 30a dc-dc mit mppt | 8 | 2026-05-05 00:07:01 | 25 |
| 1 | bauknecht kgdnf 20am in | 8 | 2026-05-05 00:07:01 | 23 |
| 1 | helmut lotti goes classic 30 years jubilee edition | 21 | 2026-05-05 00:07:01 | 24 |
| 1 | mann c 25 210 | 19 | 2026-05-05 00:07:01 | 25 |
| 1 | i7 rtx ada | 173 | 2026-05-05 00:07:01 | 24 |
| 1 | hollywoodschaukel smart granit | 27 | 2026-05-05 00:07:01 | 25 |
| 1 | milo, das müllautokind | 12 | 2026-05-05 00:07:01 | 25 |
| 1 | bluebrixx-pro ed-209 | 8 | 2026-05-05 00:07:01 | 25 |
| 1 | revolution race damen hose m | 52 | 2026-05-05 00:07:01 | 26 |
| 1 | gardena tauchdruckpumpe inox automatik | 13 | 2026-05-05 00:07:01 | 24 |
| 1 | bugatti halbschuhe - cognac | 408 | 2026-05-05 00:07:01 | 25 |
| 1 | lipton ice tea sparkling lemon | 14 | 2026-05-05 00:07:01 | 23 |
| 1 | shimano bremsbeläge br-m530 m70t3 | 8 | 2026-05-05 00:07:01 | 25 |
| 1 | bestway 5678 sandfilter | 24 | 2026-05-05 00:07:01 | 25 |
| 1 | royal canin renal hund 12 x 410g | 22 | 2026-05-06 00:07:14 | 26 |
| 1 | sandfilteranlage bestway 5678 | 23 | 2026-05-05 00:07:01 | 24 |
| 1 | wilson evolution game basketball 7 | 19 | 2026-05-05 00:07:01 | 25 |
| 1 | dl80mc | 9 | 2026-05-05 00:07:01 | 24 |
| 1 | akku original makita bl1430 3ah 14,4v | 10 | 2026-05-06 00:07:14 | 25 |
| 1 | mavaro neo 4 | 53 | 2026-05-05 00:07:01 | 26 |
| 1 | gläserne butte | 11 | 2026-05-05 00:07:01 | 26 |
| 1 | leica bellows r | 27 | 2026-05-05 00:07:01 | 24 |
| 1 | leica apo summicron m 90 | 79 | 2026-05-05 00:07:01 | 26 |
| 1 | pankreatin kapseln 20000 | 57 | 2026-05-06 00:07:14 | 26 |
| 1 | unterlegscheiben edelstahl v4a m30 | 15 | 2026-05-06 00:07:14 | 26 |
| 1 | schwalbe felgenmutter schwarz av | 12 | 2026-05-06 00:07:14 | 25 |
| 1 | bauknecht eco star 6524 | 10 | 2026-05-06 00:07:14 | 25 |
| 1 | vickywood small willow 140 | 13 | 2026-05-06 00:07:14 | 26 |
| 1 | wolfcraft schmiege und gehrungsschneidlade pro - 6956000 | 9 | 2026-05-06 00:07:14 | 24 |
| 1 | uvex pheos guard | 99 | 2026-05-06 00:07:14 | 25 |
| 1 | apple macbook neo 13 512 ssd | 70 | 2026-05-06 00:07:14 | 24 |
| 1 | einhell tc-ac 240 50 10 | 52 | 2026-05-06 00:07:14 | 24 |
| 1 | te-ac 270 50 silent | 55 | 2026-05-06 00:07:14 | 24 |
| 1 | einhell te-ac 270 50 silent | 54 | 2026-05-06 00:07:14 | 25 |
| 1 | 3.5 h milch | 178 | 2026-05-06 00:07:14 | 25 |
| 1 | worx landroid vision s300 cloud | 17 | 2026-05-06 00:07:14 | 25 |
| 1 | addipure n-butan | 14 | 2026-05-06 00:07:14 | 25 |
| 1 | goodyear ultragrip performance 3 225 40 r18 92v xl | 90 | 2026-05-06 00:07:14 | 24 |
| 1 | ghost e-teru advanced eq 2025 | 23 | 2026-05-06 00:07:14 | 26 |
| 1 | final fantasy vii remake switch 2 | 57 | 2026-05-06 00:07:14 | 26 |
| 1 | roco 7310083 | 11 | 2026-05-06 00:07:14 | 24 |
| 1 | redmi 14 4g 8 gb ram | 48 | 2026-05-06 00:07:14 | 25 |
| 1 | cherry kc 200 mx mx2a brown | 61 | 2026-05-06 00:07:14 | 25 |
| 1 | dr.oetker pizza | 35 | 2026-05-06 00:07:14 | 25 |
| 1 | aperol spritz 0.7 | 37 | 2026-05-06 00:07:14 | 25 |
| 1 | xiaomi redmi pad 2 pro keyboard tastatur de qwertz | 8 | 2026-05-06 00:07:14 | 25 |
| 1 | siemens tq727d03 | 15 | 2026-05-06 00:07:14 | 25 |
| 1 | peugeot line untersetzer | 67 | 2026-05-06 00:30:47 | 26 |
| 1 | gardena tauchdruckpumpe 6000 inox | 10 | 2026-05-06 00:07:14 | 26 |
| 1 | 09661 | 113 | 2026-05-06 00:07:14 | 24 |
| 1 | zendure ac plus | 34 | 2026-05-06 00:07:14 | 24 |
| 1 | scrub daddy original | 51 | 2026-05-06 00:07:14 | 24 |
| 1 | usb rotationsrasierer | 99 | 2026-05-06 00:07:14 | 25 |
| 1 | zendure sf2400 ac | 77 | 2026-05-06 00:07:14 | 26 |
| 1 | q10 kapseln ubichin | 97 | 2026-05-06 00:07:14 | 26 |
| 1 | mini r52 cooper s katalysator | 37 | 2026-05-06 00:07:14 | 25 |
| 1 | dreame a3 pro 3500 | 20 | 2026-05-06 00:07:14 | 24 |
| 1 | 180 55 r17 bridgestone s23 | 49 | 2026-05-06 00:07:14 | 25 |
| 1 | pernambuko bogen | 8 | 2026-05-06 00:07:14 | 26 |
| 1 | smart cool bezug tempur | 21 | 2026-05-06 00:07:14 | 26 |
| 1 | bogen pernambuko | 9 | 2026-05-06 00:07:14 | 25 |
| 1 | sennheiser soundprotex gehörschutz | 29 | 2026-05-06 00:07:14 | 25 |
| 1 | smartcool tempur | 247 | 2026-05-06 00:07:14 | 24 |
| 1 | smartcool bezug tempur | 46 | 2026-05-06 00:07:14 | 24 |
| 1 | sensecap p1 pro | 13 | 2026-05-06 00:07:14 | 25 |
| 1 | bezug tempur air comfort | 11 | 2026-05-06 00:07:14 | 25 |
| 1 | fitgriff fußschlaufe | 94 | 2026-05-06 00:07:14 | 25 |
| 1 | garmin drivesmart 55 - traffic - gps-navigationsgerät | 8 | 2026-05-06 00:07:14 | 26 |
| 1 | pernambuco violine | 106 | 2026-05-06 00:07:14 | 26 |
| 1 | barnacks erste leica | 35 | 2026-05-06 00:07:14 | 25 |
| 1 | puig windschild dayona iii | 85 | 2026-05-06 00:07:14 | 24 |
| 1 | fitgriff fußschlaufe v3 | 21 | 2026-05-06 00:07:14 | 25 |
| 1 | propain tyee 29 | 57 | 2026-05-06 00:07:14 | 26 |
| 1 | tyreinflate 20 | 17 | 2026-05-06 00:07:14 | 26 |
| 1 | neron 46 | 10 | 2026-05-06 00:07:14 | 24 |
| 1 | tempur air comfort | 27 | 2026-05-06 00:07:14 | 25 |
| 1 | barfußschuh leguano neron , gr. 46, | 8 | 2026-05-06 00:07:14 | 26 |
| 1 | gold vreneli 10 franken | 15 | 2026-05-06 00:07:14 | 24 |
| 1 | anderson kupplung | 195 | 2026-05-06 00:07:14 | 26 |
| 1 | peugeot - salzmühle line 18 cm | 50 | 2026-05-06 00:29:26 | 25 |
| 1 | rotkehlchen aus besteck | 15 | 2026-05-06 01:45:16 | 26 |
| 1 | nike vomero plus herren 45 | 87 | 2026-05-06 00:07:14 | 25 |
| 1 | puig 1984w | 110 | 2026-05-06 00:07:14 | 20 |
| 1 | reiseführer korfu | 338 | 2026-05-06 00:07:14 | 18 |
| 1 | samsung galaxy a54 hülle und panzerfolie | 9 | 2026-05-06 00:07:14 | 26 |
| 1 | samsung galaxy a54 5g hülle und panzerfolie | 9 | 2026-05-06 00:07:14 | 26 |
| 1 | uto og20 | 20 | 2026-05-06 00:07:14 | 23 |
| 1 | fizzclean wc-reiniger | 267 | 2026-05-06 00:07:14 | 26 |
| 1 | bosch connect-modul bcm3100 | 27 | 2026-05-06 00:07:14 | 26 |
| 1 | reusch city master gore-tex damen | 12 | 2026-05-06 00:07:14 | 26 |
| 1 | gartenbank sonne teak | 72 | 2026-05-06 00:07:14 | 25 |
| 1 | beach flag print | 91 | 2026-05-06 00:07:14 | 25 |
| 1 | anker solix everfrost 2 40 | 44 | 2026-05-06 00:07:14 | 24 |
| 1 | cb-500 radio | 9 | 2026-05-06 00:07:14 | 25 |
| 1 | scott fastlane | 79 | 2026-05-06 00:07:14 | 24 |
| 1 | kostal plenticore g3 m 8,5kw | 25 | 2026-05-06 00:07:14 | 26 |
| 1 | colpofix | 65 | 2026-05-06 00:07:14 | 23 |
| 1 | immermobil | 8 | 2026-05-06 00:07:14 | 22 |
| 1 | liqui moly top tec 4410 5w-30 5 l | 169 | 2026-05-06 00:07:14 | 23 |
| 1 | liqui moly top tec 4410 5w-30 | 247 | 2026-05-06 00:07:14 | 25 |
| 1 | canyon endurace onfly | 8 | 2026-05-06 00:07:14 | 24 |
| 1 | liqui moly top tec 4410 5w-30 5l | 55 | 2026-05-06 00:07:14 | 25 |
| 1 | albrecht ae5900 mini ssb | 17 | 2026-05-06 00:07:14 | 25 |
| 1 | max factor x 125 | 11 | 2026-05-06 00:07:14 | 23 |
| 1 | kavu rope sling 10 | 15 | 2026-05-06 00:07:14 | 24 |
| 1 | möve superwuschel 50x100cm snow | 24 | 2026-05-06 00:07:14 | 25 |
| 1 | kit ecovacs t50 omni | 29 | 2026-05-06 00:07:14 | 23 |
| 1 | philips master led expertcolor 3.9-35w gu10 927 25d | 9 | 2026-05-06 00:07:14 | 24 |
| 1 | oxford pro advanced | 9 | 2026-05-06 00:07:14 | 24 |
| 1 | gefu hobel violin | 12 | 2026-05-06 00:07:14 | 25 |
| 1 | gefu v hobel violi | 41 | 2026-05-06 00:07:14 | 22 |
| 1 | skf sy 506m | 13 | 2026-05-06 00:07:14 | 25 |
| 1 | oxford pro touring | 219 | 2026-05-06 00:07:14 | 25 |
| 1 | 4017777253078 | 15 | 2026-05-06 00:07:14 | 24 |
| 1 | bealife gerätehaus | 28 | 2026-05-06 00:07:14 | 24 |
| 1 | 4017777254174 | 15 | 2026-05-06 00:07:14 | 23 |
| 1 | berner klebeband | 20 | 2026-05-06 00:07:14 | 24 |
| 1 | d3 20000 k2 vitabay | 13 | 2026-05-06 00:07:14 | 26 |
| 1 | 36093 | 199 | 2026-05-06 00:07:14 | 25 |
| 1 | kostal helivor hv 12.8 | 13 | 2026-05-06 00:07:14 | 26 |
| 1 | byd battery-box hvs 12.8 | 82 | 2026-05-06 00:07:14 | 24 |
| 1 | möve frottana handtuch 50 x 100 cm weiß | 25 | 2026-05-06 00:07:14 | 25 |
| 1 | e -rollstuhl | 84 | 2026-05-06 00:07:14 | 24 |
| 1 | wasserkühlung rtx 3070 | 40 | 2026-05-06 00:07:14 | 24 |
| 1 | ulanzi ma60 | 61 | 2026-05-06 00:07:14 | 25 |
| 1 | wasserkühlung rtx3070 | 36 | 2026-05-06 00:07:14 | 26 |
| 1 | akku schlagschrauber worx wx272 | 8 | 2026-05-06 00:07:14 | 25 |
| 1 | chefman pizzaofen | 15 | 2026-05-06 00:07:14 | 26 |
| 1 | bbt-9 park tool | 30 | 2026-05-06 00:07:14 | 26 |
| 1 | amica egss 321 900 | 11 | 2026-05-06 00:42:05 | 26 |
| 1 | regenponcho wasserdicht | 521 | 2026-05-06 00:16:52 | 19 |
| 1 | velo de ville foldy | 16 | 2026-05-06 01:29:37 | 25 |
| 1 | otriven 0,1 20 ml | 46 | 2026-05-06 00:07:14 | 26 |
| 1 | sq-lab 611 ergowave active | 137 | 2026-05-06 00:07:14 | 24 |
| 1 | kostal backup switch | 30 | 2026-05-06 00:07:14 | 25 |
| 1 | wlan video türsprechanlage 2 x 10 zoll | 15 | 2026-05-06 00:07:14 | 24 |
| 1 | braun series 3 rasierer kombipack | 201 | 2026-05-06 00:07:14 | 26 |
| 1 | presslufthorn | 13 | 2026-05-06 00:07:14 | 23 |
| 1 | vitamin d3 k2 5000 tropfen 50ml | 14 | 2026-05-06 01:04:04 | 25 |
| 1 | knauf easy putz 0,5 20kg | 16 | 2026-05-06 00:07:14 | 24 |
| 1 | walimex pro 500 6,3 | 119 | 2026-05-06 00:07:14 | 25 |
| 1 | nespresso nda-16 | 12 | 2026-05-06 00:07:14 | 24 |
| 1 | aabcooling presslufthorn | 10 | 2026-05-06 00:07:14 | 23 |
| 1 | orthomol neuro kapseln, 30 st | 12 | 2026-05-06 00:07:14 | 25 |
| 1 | hg nespresso entkalker | 12 | 2026-05-06 00:07:14 | 25 |
| 1 | samsung galaxy tab s11 wifi | 296 | 2026-05-06 00:07:14 | 24 |
| 1 | xiaomi 15t 512gb neu mit vertrag | 16 | 2026-05-06 00:07:14 | 25 |
| 1 | lizetan plus 100 stück | 39 | 2026-05-06 00:07:14 | 25 |
| 1 | de longhi ecodecalk descaler | 48 | 2026-05-06 00:07:14 | 24 |
| 1 | bois imperial 100ml | 43 | 2026-05-06 00:07:14 | 24 |
| 1 | exide agm ek 620 | 31 | 2026-05-06 00:07:14 | 26 |
| 1 | varta d52 agm a8 | 18 | 2026-05-06 00:07:14 | 24 |
| 1 | akku schlagschrauber 20v worx | 53 | 2026-05-06 00:07:14 | 25 |
| 1 | akku schlagschrauber 20v worx 272 | 9 | 2026-05-06 00:07:14 | 24 |
| 1 | tp powerlink | 16 | 2026-05-06 00:07:14 | 26 |
| 1 | sillage | 570 | 2026-05-06 00:07:14 | 25 |
| 1 | firetv 4k max | 17 | 2026-05-06 00:07:14 | 26 |
| 1 | beurer em 59 89 heat elektroden nachkaufset | 16 | 2026-05-06 00:07:14 | 25 |
| 1 | makita akku-handkreissäge hs301dz | 46 | 2026-05-06 00:07:14 | 25 |
| 1 | makita bl1041b li | 178 | 2026-05-06 00:07:14 | 25 |
| 1 | tefal bbq booster cb6418 | 9 | 2026-05-06 00:07:14 | 24 |
| 1 | 4046173100303 | 19 | 2026-05-06 00:07:14 | 23 |
| 1 | asus zenbook pro 14 duo oled ux8402vv | 16 | 2026-05-06 00:07:14 | 25 |
| 1 | valerian pro 2 | 8 | 2026-05-06 00:07:14 | 26 |
| 1 | valerion visionmaster pro 2 | 117 | 2026-05-06 00:07:14 | 26 |
| 1 | 25 kg lebensmittel sonnenblumenkerne | 12 | 2026-05-06 00:07:14 | 26 |
| 1 | siemens lj97bdp60 | 16 | 2026-05-06 00:07:14 | 26 |
| 1 | brit care fresh chicken weight control | 10 | 2026-05-06 01:03:39 | 25 |
| 1 | xiaomi 15t 256gb gold | 60 | 2026-05-06 00:07:14 | 23 |
| 1 | apple iphone 17 pro max512gb neu | 88 | 2026-05-06 00:07:14 | 25 |
| 1 | marbert bath body classic lotion 400ml | 56 | 2026-05-06 00:07:14 | 24 |
| 1 | 4005546210209 | 22 | 2026-05-06 00:07:14 | 24 |
| 1 | versace the dreamer 50ml | 32 | 2026-05-06 00:07:14 | 26 |
| 1 | ooono pd3 | 13 | 2026-05-06 00:07:14 | 25 |
| 1 | monster white | 421 | 2026-05-06 00:07:14 | 24 |
| 1 | afnan turathi blue 100ml | 13 | 2026-05-06 00:07:14 | 25 |
| 1 | blasenpflaster unter den füßen | 76 | 2026-05-06 00:07:14 | 23 |
| 1 | lattafa asad 50ml | 11 | 2026-05-06 00:07:14 | 26 |
| 1 | hmc 10 sc | 14 | 2026-05-06 00:07:14 | 25 |
| 1 | hue neon outdoor 10m | 15 | 2026-05-06 00:07:14 | 24 |
| 1 | ccc 7 | 96 | 2026-05-06 00:07:14 | 24 |
| 1 | aeg lr8ew80600 | 9 | 2026-05-06 00:07:14 | 24 |
| 1 | sm-x736 5g | 62 | 2026-05-06 00:07:14 | 26 |
| 1 | sikafloor -264 plus | 14 | 2026-05-06 00:07:14 | 23 |
| 1 | delonghi ex105 | 17 | 2026-05-06 00:07:14 | 23 |
| 1 | garmin s 50 | 85 | 2026-05-06 00:07:14 | 24 |
| 1 | golfuhr garmin s 50 | 17 | 2026-05-06 00:07:14 | 25 |
| 1 | sram nx eagle pg-1230 kassette kette | 9 | 2026-05-06 00:07:14 | 25 |
| 1 | sram nx eagle kassette kette set | 13 | 2026-05-06 00:07:14 | 25 |
| 1 | air drops haribo | 65 | 2026-05-06 00:07:14 | 24 |
| 1 | megasat 100204 | 10 | 2026-05-06 00:07:14 | 23 |
| 1 | the bad peach | 8 | 2026-05-06 00:07:14 | 23 |
| 1 | hp color laserjet enterprise m555x | 62 | 2026-05-06 00:07:14 | 22 |
| 1 | lenovo yoga slim snapdragon x elite | 34 | 2026-05-06 00:07:14 | 24 |
| 1 | gd-0170 | 17 | 2026-05-06 00:07:14 | 25 |
| 1 | garronda 90 | 25 | 2026-05-06 00:07:14 | 26 |
| 1 | a 103 s | 350 | 2026-05-06 00:07:14 | 24 |
| 1 | a 103 s bosch | 39 | 2026-05-06 00:07:14 | 24 |
| 1 | 3397014117 | 25 | 2026-05-06 00:07:14 | 24 |
| 1 | federbeinstützlager febi bilstein 193534 | 27 | 2026-05-06 00:07:14 | 22 |
| 1 | usb-a auf usb-b 10 m aktiv | 32 | 2026-05-06 00:07:14 | 24 |
| 1 | galaxy tab s11 5g ohne vertrag | 16 | 2026-05-06 00:07:14 | 24 |
| 1 | barberboss | 327 | 2026-05-06 00:07:14 | 22 |
| 1 | febi 170500 | 33 | 2026-05-06 00:07:14 | 24 |
| 1 | nagetier abwehr | 182 | 2026-05-06 00:07:14 | 24 |
| 1 | arizona naturleder 46 | 60 | 2026-05-06 00:07:14 | 23 |
| 1 | vdo 2803605027302 | 20 | 2026-05-06 00:07:14 | 24 |
| 1 | aktives usb-a auf usb-b 10 m | 24 | 2026-05-06 00:07:14 | 23 |
| 1 | schwalbe marathon plus 28x1,40 11100769 | 8 | 2026-05-06 00:07:14 | 26 |
| 1 | vemo v30-81-0003-1 | 27 | 2026-05-06 00:07:14 | 24 |
| 1 | extech 407730 | 9 | 2026-05-06 00:07:14 | 24 |
| 1 | new balance 373 dark olivine | 15 | 2026-05-06 00:07:14 | 26 |
| 1 | gds 18 330 hc | 147 | 2026-05-06 00:07:14 | 26 |
| 1 | casio mtp-m 305 l - 1 av | 13 | 2026-05-06 00:07:14 | 25 |
| 1 | stihl akku ap 500s | 75 | 2026-05-06 00:07:14 | 25 |
anzahl 257 xml 257